Weather in Arik

Russia / The Kabardino-Balkar Republic     43°34′47″N   44°07′15″E
temp.,
°C
wind,
m/s
gust,
m/s
humid.,
%
clouds,
%
prec.,
mm/h
press.,
hPa
HPBL,
m
5 december, sun
sun500:00+6se11505 0.0 101210
03:00+5ssw115084 0.0 101210
06:00+5nnw1152100 0.0 101110
09:00+6nw2251100 0.0 101220
12:00+10nw224197 0.0 1012262
15:00+10nnw1146100 0.0 101362
18:00+8e115097 0.0 101410
21:00+7sw115486 0.0 101610
6 december, mon
mon600:00+6sse11555 0.0 101710
03:00+5wnw11595 0.0 101910
06:00+4ssw00635 0.0 102010
09:00+6sse11590 0.0 102119
12:00+10e22425 0.0 1020346
15:00+11ne224221 0.0 1020145
18:00+7n016112 0.0 102210
21:00+6w116526 0.0 102310
7 december, tue
tue700:00+5nne00660 0.0 102210
03:00+5se00650 0.0 102210
06:00+4w00680 0.0 102310
09:00+6ese11607 0.0 102221
12:00+10ene22450 0.0 1020269
15:00+11ne23490 0.0 1018254
18:00+6nne11770 0.0 101810
21:00+5nw11820 0.0 101610
8 december, wed
wed800:00+4nw22880 0.0 101413
03:00+3wnw229411 0.0 101320
06:00+3wnw129864 0.0 101240
09:00+4wnw119172 0.0 1012230
12:00+8nnw1172100 0.0 1010289
15:00+9nnw11640 0.0 1009262
18:00+7wsw11755 0.0 101010
21:00+6w11755 0.0 101010
9 december, thu
thu900:00+5w11795 0.0 101110
03:00+5sw1177100 0.0 101410
06:00+6s3366100 0.0 101525
09:00+8ssw3357100 0.0 101748
12:00+11ssw2463100 0.0 1016149
15:00+11s226596 0.1 101819
18:00+10ssw347699 0.0 102067
21:00+9s227699 0.0 102027